Daggett-Barstow, CA

11:01 PM PDT on August 20, 2017 (GMT -0700)
Barstow-Daggett

Weather History for KDAG - August, 2013

Change the Weather History Date:

Sunday, August 11, 2013

  Actual Average Record
Temperature  
Mean Temperature 83 °F 88 °F  
Max Temperature 100 °F 104 °F 112 °F (1980)
Min Temperature 66 °F 73 °F 57 °F (1949)
Degree Days  
Heating Degree Days 0    
Cooling Degree Days 18    
Growing Degree Days 33 (Base 50)    
Moisture  
Dew Point 37 °F    
Average Humidity 21    
Maximum Humidity 37    
Minimum Humidity 9    
Precipitation  
Precipitation 0.00 in 0.01 in 0.16 in (1970)
Month to date precipitation 0.12  
Year to date precipitation 2.62  
Sea Level Pressure  
Sea Level Pressure 29.84 in    
Wind  
Wind Speed 10 mph (West)    
Max Wind Speed 21 mph    
Max Gust Speed 24 mph    
Visibility 10 miles    
Events      
T = Trace of Precipitation, MM = Missing Value Source: NWS Daily Summary

Daily Weather History Graph

Daily Weather History Graph

Search for Another Location

Airport or City:

Trip Planner

Search our weather history database for the weather conditions in past years. The results will help you decide how hot, cold, wet, or windy it might be!

Date:

Astronomy

Aug. 11, 2013 Rise Set
Actual Time 6:04 AM PDT 7:39 PM PDT
Civil Twilight 5:37 AM PDT 8:06 PM PDT
Nautical Twilight 5:05 AM PDT 8:38 PM PDT
Astronomical Twilight 4:30 AM PDT 9:12 PM PDT
Moon 10:42 AM PDT (8/11) 10:13 PM PDT (8/11)
Length of Visible Light 14h 28m
Length of Day
13h 34m
Waxing Crescent, 23% of the Moon is Illuminated
Aug 11
Waxing Crescent
Aug 14
First Quarter
Aug 20
Full
Aug 28
Last Quarter
Sep 5
New

Hourly Weather History & Observations

Time (PDT) Temp. Dew Point Humidity Pressure Visibility Wind Dir Wind Speed Gust Speed Precip Events Conditions
12:50 AM 77.0 °F 39.9 °F 26% 29.87 in 10.0 mi West 9.2 mph - N/A   Clear
1:50 AM 73.0 °F 41.0 °F 31% 29.88 in 10.0 mi West 9.2 mph - N/A   Clear
2:50 AM 72.0 °F 42.1 °F 34% 29.88 in 10.0 mi West 9.2 mph - N/A   Clear
3:50 AM 70.0 °F 41.0 °F 35% 29.88 in 10.0 mi West 10.4 mph - N/A   Clear
4:50 AM 69.1 °F 39.9 °F 35% 29.88 in 10.0 mi West 11.5 mph - N/A   Clear
5:50 AM 66.9 °F 39.9 °F 37% 29.89 in 10.0 mi West 11.5 mph - N/A   Clear
6:50 AM 68.0 °F 39.9 °F 36% 29.90 in 10.0 mi West 10.4 mph - N/A   Clear
7:50 AM 73.0 °F 41.0 °F 31% 29.91 in 10.0 mi West 9.2 mph - N/A   Clear
8:50 AM 79.0 °F 42.1 °F 27% 29.91 in 10.0 mi WNW 11.5 mph - N/A   Clear
9:50 AM 82.9 °F 42.1 °F 24% 29.90 in 10.0 mi WNW 12.7 mph - N/A   Clear
10:50 AM 86.0 °F 41.0 °F 20% 29.89 in 10.0 mi WNW 11.5 mph - N/A   Clear
11:50 AM 90.0 °F 36.0 °F 15% 29.88 in 10.0 mi WNW 6.9 mph - N/A   Clear
12:50 PM 91.9 °F 37.0 °F 15% 29.86 in 10.0 mi NE 4.6 mph - N/A   Clear
1:50 PM 95.0 °F 37.0 °F 13% 29.84 in 10.0 mi Variable 5.8 mph - N/A   Clear
2:50 PM 96.1 °F 36.0 °F 12% 29.81 in 10.0 mi Variable 4.6 mph - N/A   Clear
3:50 PM 97.0 °F 34.0 °F 11% 29.79 in 10.0 mi Variable 3.5 mph - N/A   Clear
4:50 PM 100.0 °F 32.0 °F 9% 29.76 in 10.0 mi NE 8.1 mph - N/A   Clear
5:50 PM 98.1 °F 30.9 °F 9% 29.75 in 10.0 mi WSW 5.8 mph - N/A   Clear
6:50 PM 97.0 °F 30.9 °F 10% 29.75 in 10.0 mi NW 5.8 mph - N/A   Clear
7:50 PM 93.9 °F 30.0 °F 10% 29.75 in 10.0 mi WSW 15.0 mph - N/A   Clear
7:55 PM 93.2 °F 30.2 °F 11% 29.84 in 10.0 mi WSW 15.0 mph - N/A   Clear
8:50 PM 90.0 °F 30.9 °F 12% 29.78 in 10.0 mi WSW 20.7 mph 24.2 mph N/A   Clear
9:50 PM 87.1 °F 37.0 °F 17% 29.82 in 10.0 mi West 11.5 mph - N/A   Clear
10:50 PM 82.9 °F 37.9 °F 20% 29.83 in 10.0 mi West 10.4 mph - N/A   Clear
11:50 PM 80.1 °F 39.9 °F 24% 29.84 in 10.0 mi West 9.2 mph - N/A   Clear